sat.trackr.live / text

‹ back to catalog

GLOBAL-5

NORAD 55983 · 2023-041C

PAYLOAD ACTIVE UNKNOWN

§ Identity

Operator
Country
US
Launch date
2023-03-24
Launch site
RLLB
Launch vehicle
Mass (kg)
RCS (m²)

External: N2YO · Heavens-Above · Gunter

§ Orbital elements

Epoch: 2026-05-24T22:53:19.768992Z

Period
93.59 min
Inclination
42.0017°
Eccentricity
0.0006545
Mean motion
15.38550557 rev/d
Perigee alt
445.9 km
Apogee alt
454.9 km
Semi-major
6,828.5 km
B*
3.5549e-4
RAAN
336.9675°
Arg perigee
202.1002°
Mean anomaly
157.9557°
Rev number
17,835

§ Raw data

GLOBAL-51 55983U 23041C   26144.95370103  .00013603  00000+0  35549-3 0  99962 55983  42.0017 336.9675 0006545 202.1002 157.9557 15.38550557178359

JSON: /api/v1/satellites/55983 · /tle

For live sub-satellite position, see the globe view (requires WebGL).

§ Visibility from observer

Set your observer location to see the next 7 days of passes ≥ 10°. The values pass through the URL so the page stays shareable.

No JS? Fill the form by hand. The geolocation button needs JavaScript.

§ Radio — SatNOGS DB

ModeDescriptionDownlinkUplink
FM Mode U - Transmitter 401.015 MHz

1 transmitter · refreshed weekly from db.satnogs.org